This is the latest recevied weather packets stored in our database for station/object KF4UQS-14. If no packets are shown the sender has not sent any weather packets the latest 10 day(s).
| Time | Temp. | Humidity | Pressure | Rain* | Wind** | Luminosity | Snow |
|---|---|---|---|---|---|---|---|
| 1777851502 | 16.11° C | 39% | 1016.6 hPa | 0 mm | - | 13 W/m² | - |
| 1777851197 | 16.11° C | 36% | 1016.4 hPa | 0 mm | - | 17 W/m² | - |
| 1777850894 | 16.67° C | 36% | 1016.3 hPa | 0 mm | - | 21 W/m² | - |
| 1777850591 | 16.67° C | 36% | 1016.6 hPa | 0 mm | - | 26 W/m² | - |
| 1777850290 | 16.67° C | 35% | 1016.4 hPa | 0 mm | - | 32 W/m² | - |
| 1777849986 | 16.67° C | 35% | 1016.3 hPa | 0 mm | - | 37 W/m² | - |
| 1777849682 | 16.67° C | 35% | 1016.4 hPa | 0 mm | - | 44 W/m² | - |
| 1777849379 | 16.67° C | 34% | 1016.3 hPa | 0 mm | - | 52 W/m² | - |
| 1777849077 | 17.22° C | 35% | 1016.3 hPa | 0 mm | - | 61 W/m² | - |
| 1777848772 | 17.22° C | 34% | 1016.4 hPa | 0 mm | - | 70 W/m² | - |
| 1777848469 | 17.22° C | 33% | 1016.2 hPa | 0 mm | - | 81 W/m² | - |
| 1777848167 | 17.22° C | 32% | 1016.5 hPa | 0 mm | - | 92 W/m² | - |
| 1777847865 | 17.22° C | 32% | 1016.3 hPa | 0 mm | - | 103 W/m² | - |
| 1777847562 | 17.22° C | 32% | 1016.4 hPa | 0 mm | - | 115 W/m² | - |
| 1777847258 | 17.22° C | 33% | 1016.5 hPa | 0 mm | - | 129 W/m² | - |
| 1777846956 | 17.22° C | 32% | 1016.2 hPa | 0 mm | - | 142 W/m² | - |
| 1777846654 | 17.78° C | 32% | 1016.1 hPa | 0 mm | - | 155 W/m² | - |
| 1777846352 | 17.78° C | 31% | 1016.1 hPa | 0 mm | - | 170 W/m² | - |
| 1777846048 | 17.78° C | 32% | 1016.1 hPa | 0 mm | - | 130 W/m² | - |
| 1777845745 | 17.78° C | 32% | 1016.2 hPa | 0 mm | - | 197 W/m² | - |
| 1777845442 | 17.78° C | 34% | 1016.1 hPa | 0 mm | - | 212 W/m² | - |
| 1777845139 | 17.78° C | 32% | 1016.1 hPa | 0 mm | - | 230 W/m² | - |
| 1777844837 | 18.33° C | 31% | 1016.2 hPa | 0 mm | - | 245 W/m² | - |
| 1777844533 | 17.78° C | 32% | 1016.2 hPa | 0 mm | - | 263 W/m² | - |
| 1777844231 | 17.78° C | 32% | 1016.2 hPa | 0 mm | - | 279 W/m² | - |
* Rain latest hour (hover to see other rain measurements)
** Current wind speed in m/s (hover to see current wind gust speed)